Temperature
24 24 24 23 23 23 23 23 22 23 23 22 22 22 22 21 20 20 19 18 18 17 17 17 16 16 16 15 15 15 15 14 14 14 14 13 13 13 13 13 12 12 12 12
23 24 24 23 23 23 23 23 23 23 22 23 22 22 21 20 20 19 18 18 17 17 16 16 16 16 15 15 15 15 14 14 14 14 13 13 13 13 12 12 12 12 12 12
22 23 23 22 23 23 23 23 23 21 22 22 22 21 20 20 19 18 18 17 17 16 16 16 16 16 15 15 15 14 14 14 14 13 13 13 13 12 12 12 12 12 12 12
22 22 21 22 23 23 23 22 22 22 21 21 21 20 20 19 18 17 17 17 16 16 15 15 15 15 15 15 14 14 14 14 13 13 13 12 12 12 12 12 12 11 11 11
21 21 21 22 22 22 22 21 22 21 21 20 20 20 19 18 17 17 16 16 16 15 15 15 15 15 14 14 14 14 13 13 13 13 12 12 12 12 12 11 11 11 11 11
20 20 20 20 21 22 21 20 20 20 20 20 19 18 17 17 16 16 16 15 15 15 15 14 14 14 14 14 14 13 13 13 13 12 12 12 12 11 11 11 11 11 11 11
20 20 20 20 20 21 19 19 19 19 19 18 18 17 17 16 15 15 15 15 14 14 14 14 14 13 13 13 13 13 13 12 12 12 12 11 11 11 11 11 11 10 10 10
19 19 18 19 20 19 19 19 19 18 18 17 17 16 16 15 15 14 14 14 14 13 13 13 13 13 13 13 12 12 12 12 12 11 11 11 11 10 10 10 10 10 10 10
19 18 19 18 18 18 18 18 18 17 17 16 16 15 15 14 14 14 13 13 13 13 13 12 12 12 12 12 12 12 11 11 11 11 10 10 10 10 10 10 10 9 9 9
19 18 18 18 17 17 17 17 16 16 16 15 15 15 14 14 13 13 13 13 12 12 12 12 12 12 11 11 11 11 11 10 10 10 10 9 9 9 9 9 9 9 9 8
18 18 17 17 17 16 16 16 15 15 15 14 14 14 14 13 13 12 12 12 12 12 11 11 11 11 11 11 10 10 10 10 9 9 9 9 9 9 9 9 8 8 8 8
17 18 17 16 16 15 15 15 15 14 14 14 14 13 13 13 12 12 12 11 11 11 11 11 11 11 11 10 10 10 9 9 9 9 8 8 8 8 8 8 8 8 8 8
17 16 16 16 15 15 14 14 14 14 13 13 13 13 12 12 12 11 11 11 11 11 10 10 10 10 10 10 9 9 9 8 8 8 8 8 8 8 7 7 7 7 7 7
16 15 15 15 14 14 14 13 13 13 13 12 12 12 12 11 11 11 10 10 10 10 10 10 10 9 9 9 9 8 8 8 8 8 7 7 7 7 7 7 7 7 7 7
15 15 14 14 14 13 13 13 12 12 12 11 11 11 11 10 10 10 10 10 9 9 9 9 9 9 9 8 8 8 8 8 7 7 7 7 7 6 6 6 6 6 6 6
14 14 13 13 13 12 12 12 12 11 11 11 10 10 10 9 9 9 9 9 9 9 8 8 8 8 8 8 7 7 7 7 7 7 7 6 6 6 6 6 6 6 6 6
13 13 12 12 12 12 11 11 11 10 10 10 9 9 9 9 8 8 8 8 8 8 8 8 7 7 7 7 7 7 7 6 6 6 6 6 6 5 5 5 5 5 5 5
12 12 12 12 11 11 10 10 10 10 9 9 9 8 8 8 8 8 8 7 7 7 7 7 7 7 6 6 6 6 6 6 6 5 5 5 5 5 5 5 5 4 4 4
11 11 11 10 10 10 10 9 9 9 9 8 8 8 8 7 7 7 7 7 7 6 6 6 6 6 6 6 6 5 5 5 5 5 5 4 4 4 4 4 4 4 4 4
10 10 10 9 9 9 9 9 9 8 8 8 7 7 7 7 7 7 6 6 6 6 6 6 5 5 5 5 5 5 5 5 4 4 4 4 4 4 4 3 3 3 3 3
10 9 9 9 8 8 8 8 8 8 7 7 7 6 6 6 6 6 6 5 5 5 5 5 5 5 5 5 5 4 4 4 4 4 4 3 3 3 3 3 3 3 2 2
9 9 8 8 8 8 7 7 7 7 7 6 6 6 6 6 5 5 5 5 5 5 4 4 4 4 4 4 4 4 4 3 3 3 3 3 3 2 2 2 2 2 2 2
8 8 8 7 7 7 7 7 6 6 6 6 6 5 5 5 5 5 4 4 4 4 4 4 4 4 4 4 3 3 3 3 2 2 2 2 2 2 2 2 1 1 1 1
8 8 7 7 7 7 6 6 6 6 6 5 5 5 5 4 4 4 4 4 4 4 3 3 3 3 3 3 3 3 2 2 2 2 2 1 1 1 1 1 1 1 1 1
7 7 7 7 6 6 6 6 5 5 5 5 5 4 4 4 4 4 3 3 3 3 3 3 3 3 3 2 2 2 2 2 1 1 1 1 1 1 1 1 1 1 0 0
7 7 6 6 6 6 5 5 5 5 4 4 4 4 4 3 3 3 3 3 3 3 2 2 2 2 2 2 2 1 1 1 1 1 1 1 0 0 0 0 0 0 0 0
6 6 6 5 5 5 5 5 4 4 4 4 4 3 3 3 3 3 3 2 2 2 2 2 2 2 2 1 1 1 1 1 1 1 1 0 0 -0 -0 -0 -0 -0 -0 -0
Wind_Speed
9 8 7 7 8 8 8 8 7 6 3 2 2 2 3 3 3 3 3 2 2 2 1 2 4 4 4 4 5 5 5 4 4 4 3 3 2 2 2 1 1 1 1 1
11 10 9 9 9 8 7 7 8 7 4 2 2 2 3 3 3 3 2 1 1 1 1 1 3 4 4 4 4 5 5 5 4 3 2 3 3 2 2 2 2 1 1 1
9 8 9 9 7 7 5 4 5 4 3 3 3 3 3 4 4 3 2 1 1 0 0 1 1 2 3 3 3 4 4 4 4 3 3 3 3 2 2 3 2 2 2 2
8 8 9 2 2 2 2 2 2 2 4 4 4 3 4 5 3 2 2 2 1 1 1 1 1 0 1 2 2 2 3 3 3 3 3 3 3 3 3 3 2 3 3 3
6 8 6 2 1 2 3 1 3 3 3 4 4 2 4 6 5 4 3 2 2 1 1 2 1 1 0 1 2 2 2 2 3 3 3 3 3 4 3 2 2 3 3 3
7 7 5 1 3 4 3 1 4 3 3 4 4 2 2 4 4 3 3 3 3 2 1 1 1 1 1 1 1 2 1 2 3 3 3 3 4 3 2 3 3 3 3 3
8 8 3 3 4 3 1 2 4 4 4 4 3 3 3 4 4 4 3 3 3 2 2 2 2 1 1 1 2 1 1 1 1 2 3 3 3 2 2 3 3 3 3 3
6 7 3 3 2 1 3 4 5 5 5 5 5 6 5 5 4 4 3 3 3 2 3 3 2 2 2 2 2 1 0 1 1 2 2 2 2 2 2 2 3 3 3 2
2 1 3 3 3 4 4 4 5 5 6 6 5 4 4 4 3 3 3 3 3 3 3 3 3 2 3 3 1 0 1 1 2 2 2 2 2 2 2 2 2 2 2 2
2 1 2 3 5 5 4 4 5 5 5 4 4 4 4 3 3 3 3 2 2 2 2 2 2 2 2 3 2 1 1 2 2 1 1 1 1 1 2 2 2 2 2 2
4 1 2 2 4 4 4 4 4 4 3 3 3 3 3 2 2 2 3 2 2 2 1 2 2 2 2 2 1 1 2 2 2 1 1 1 1 2 2 2 2 3 3 2
3 2 1 0 2 4 3 3 3 4 4 4 3 3 3 3 2 2 3 3 3 3 2 2 2 3 3 3 2 2 2 2 1 1 1 1 1 2 3 3 3 3 3 3
4 3 3 2 2 2 3 3 4 4 4 4 4 4 4 3 3 3 3 4 4 4 3 3 3 3 3 3 2 2 3 2 1 1 1 2 1 2 2 3 4 3 4 5
2 3 2 2 2 2 3 3 3 3 4 4 4 4 4 3 3 3 3 3 4 4 4 3 3 3 3 3 2 3 3 3 2 1 1 2 2 2 2 2 3 3 4 5
3 2 2 2 2 2 2 2 3 3 4 5 5 4 4 4 3 3 4 4 4 4 4 4 3 3 3 3 3 3 3 1 1 1 1 2 2 2 2 3 3 3 2 3
3 2 1 2 2 1 1 2 2 3 3 3 4 4 4 4 3 3 3 3 3 4 4 4 4 3 3 3 3 2 2 2 2 1 1 2 2 2 2 2 2 2 2 2
3 3 3 3 2 2 2 2 2 3 3 3 3 3 4 4 4 4 3 3 3 3 3 3 4 4 3 3 3 2 2 2 3 2 2 2 2 2 2 2 2 2 3 2
2 1 1 2 2 2 2 2 2 3 3 3 3 3 3 4 4 4 4 4 3 3 3 4 4 4 3 3 3 2 1 1 1 2 2 2 2 2 2 2 3 3 3 2
0 0 0 1 1 1 1 2 2 2 3 3 3 3 3 3 4 4 4 4 4 4 4 4 6 3 2 2 3 2 1 1 2 2 2 3 3 2 2 3 3 3 3 2
1 1 0 1 1 1 2 2 2 2 2 2 3 3 3 4 4 4 4 3 3 3 3 4 4 3 2 2 4 2 2 2 2 2 2 2 2 2 3 3 3 3 3 3
1 1 1 1 1 1 2 2 2 2 3 3 3 3 4 4 3 3 3 3 3 3 4 5 3 2 2 3 4 2 2 2 3 2 2 2 2 3 3 3 3 3 3 3
2 2 2 1 2 2 2 2 2 2 2 3 3 4 4 3 3 3 3 2 2 4 4 3 2 3 5 5 3 3 2 3 3 3 2 2 2 3 3 3 3 4 3 3
2 2 2 2 2 2 3 3 2 2 2 3 3 4 3 3 2 3 3 3 2 4 4 3 4 6 6 4 2 3 3 3 3 3 3 3 3 3 3 4 3 3 3 3
2 2 3 3 3 3 3 3 2 2 2 2 3 3 3 2 3 2 2 3 5 5 3 4 6 6 5 2 2 2 2 3 3 3 3 3 3 3 3 3 3 3 3 3
3 3 3 3 3 3 3 2 3 3 2 2 3 2 2 2 2 2 2 2 3 4 2 3 5 5 3 2 2 2 2 3 3 3 3 3 3 3 3 3 3 3 3 3
3 3 2 3 3 2 2 2 2 2 2 2 2 2 2 2 2 2 2 1 2 3 2 2 2 3 3 2 2 3 3 3 3 3 3 3 4 4 3 4 4 4 4 3
3 3 2 2 2 2 2 2 2 3 3 3 3 2 2 2 2 2 2 2 2 2 2 2 2 2 3 3 3 3 3 3 3 3 3 3 3 3 3 4 4 4 4 4
Wind_Direction
272 264 257 256 254 253 261 274 281 296 300 351 34 51 78 82 105 103 90 84 93 106 135 161 169 178 184 186 187 184 182 194 199 196 191 178 176 184 169 154 191 218 218 250
266 261 256 257 259 252 253 272 279 289 299 21 25 37 68 75 75 87 98 89 105 117 111 152 187 188 191 189 190 187 187 190 187 188 185 177 180 192 182 181 205 230 229 220
271 263 269 258 257 251 246 263 278 290 331 24 19 32 52 75 76 57 52 72 76 165 163 267 257 204 187 189 194 193 184 179 174 180 185 193 196 193 192 198 197 217 240 228
269 265 257 253 343 283 247 282 319 351 26 17 28 35 65 74 71 58 50 32 17 4 8 311 303 349 166 167 178 190 178 174 175 185 187 193 198 206 213 214 205 210 223 228
262 263 254 243 339 319 268 271 4 11 26 17 16 50 70 66 60 56 50 30 7 2 339 314 319 341 49 168 165 187 182 180 187 194 194 197 208 216 219 211 215 223 217 224
259 263 264 341 3 334 291 229 16 21 16 17 15 349 8 43 47 46 47 37 14 358 353 343 342 349 247 241 194 200 196 206 205 202 201 204 215 220 219 212 219 224 228 233
258 263 264 10 1 350 267 360 24 25 32 35 24 17 31 47 47 43 45 40 23 10 18 2 350 339 293 270 254 221 203 205 204 209 211 210 214 216 216 216 221 227 228 230
252 256 258 27 9 22 19 25 28 31 37 35 35 41 36 41 42 52 45 40 41 31 20 14 5 336 301 291 303 323 171 230 230 225 233 226 199 216 227 224 228 234 233 237
274 272 68 71 51 34 24 26 27 31 35 28 26 31 27 34 32 44 45 43 44 42 21 14 12 351 321 321 322 281 243 243 247 256 247 232 216 210 215 223 230 241 242 239
255 170 90 56 41 42 36 32 29 29 30 18 7 12 13 17 26 29 28 29 33 34 18 360 347 336 311 313 310 270 258 259 259 256 295 297 279 250 236 243 241 241 249 252
270 174 97 50 30 35 36 35 29 25 17 6 2 354 354 357 23 21 16 15 18 18 3 337 333 331 340 340 327 298 274 268 271 270 261 290 312 308 274 265 238 232 242 247
293 319 292 262 33 35 29 25 21 10 1 355 354 347 348 352 17 25 10 1 2 3 351 334 333 335 345 355 339 295 284 279 271 252 250 249 254 320 329 289 275 241 235 241
315 355 359 355 24 24 2 360 4 357 348 344 351 1 5 7 16 20 6 357 352 346 335 326 330 341 350 352 347 317 300 293 284 265 257 250 243 245 279 306 308 288 262 255
345 348 328 342 353 1 343 344 348 348 357 0 4 6 3 4 9 5 354 347 343 340 337 334 335 337 345 349 340 322 315 302 292 263 251 252 253 257 254 259 278 291 283 258
289 301 305 338 346 337 339 344 341 353 5 3 4 0 354 355 357 348 342 341 345 345 337 333 333 335 350 349 333 319 320 318 305 291 267 262 263 260 264 270 277 278 276 269
270 291 295 285 277 295 312 312 319 337 352 354 353 348 344 343 341 337 335 338 341 335 331 331 330 338 353 341 323 313 321 326 333 308 280 279 283 285 285 290 295 293 291 285
238 240 243 257 265 276 304 318 323 330 335 340 339 335 331 330 329 329 332 336 329 324 328 340 343 350 349 340 325 321 326 313 320 319 310 303 296 284 280 280 284 286 287 291
245 255 270 261 260 271 285 307 323 323 321 320 326 329 324 324 323 324 326 328 324 322 340 353 350 346 351 351 335 323 314 306 306 302 299 288 284 283 288 285 280 281 287 288
221 197 29 2 351 311 289 299 313 314 316 321 320 314 312 314 315 319 323 322 318 314 326 342 335 338 335 329 330 328 329 318 308 301 299 298 294 298 300 300 303 302 298 297
138 109 64 359 337 314 297 298 306 308 312 317 317 316 317 317 320 322 319 314 318 322 332 338 325 323 330 330 339 330 325 312 299 294 295 295 299 303 302 299 297 297 299 296
196 203 225 270 289 295 299 301 297 299 311 312 305 303 305 306 313 316 308 304 319 345 340 327 328 334 336 335 333 327 318 305 296 291 292 293 291 289 290 296 300 297 294 294
218 225 229 242 253 268 280 287 287 290 300 302 303 305 305 306 312 314 311 313 329 341 335 324 327 332 335 329 311 310 313 311 307 310 311 309 303 298 297 298 297 298 300 301
233 241 248 257 263 278 283 277 281 291 294 298 301 302 300 300 302 301 303 321 341 332 326 323 329 329 327 323 311 305 307 309 310 312 312 308 305 302 299 298 300 301 299 298
236 241 252 265 272 272 272 280 295 292 286 289 290 295 300 301 302 306 319 333 338 329 322 325 332 331 331 322 312 315 317 316 314 312 312 313 312 308 305 302 303 307 305 300
254 246 245 248 260 269 279 287 289 289 290 288 290 298 301 299 298 310 317 315 323 324 320 325 327 328 327 311 314 314 313 312 314 314 313 315 311 308 307 307 307 302 298 296
266 262 262 265 266 261 265 272 279 285 288 289 293 305 312 314 310 307 293 295 298 311 310 302 309 319 312 311 315 317 315 313 308 308 312 314 311 310 309 311 307 303 300 299
254 261 256 251 252 251 253 261 273 279 282 282 287 296 300 299 295 290 289 291 288 283 283 296 309 313 313 313 311 310 312 313 312 308 304 303 304 303 303 304 304 304 306 303
Height
1479 1477 1478 1481 1481 1481 1484 1484 1489 1487 1485 1483 1483 1483 1485 1487 1489 1490 1492 1493 1494 1494 1495 1496 1497 1499 1500 1502 1503 1504 1505 1506 1507 1508 1509 1510 1511 1511 1512 1512 1513 1513 1513 1513
1481 1475 1475 1478 1477 1478 1480 1481 1482 1482 1483 1481 1482 1484 1485 1487 1489 1490 1492 1493 1493 1494 1494 1495 1496 1497 1498 1499 1501 1501 1502 1503 1504 1505 1506 1507 1507 1508 1509 1509 1509 1510 1510 1510
1484 1476 1476 1483 1477 1476 1477 1478 1480 1485 1484 1481 1482 1484 1486 1487 1489 1491 1492 1492 1492 1493 1493 1494 1495 1495 1496 1496 1498 1498 1499 1500 1501 1502 1502 1503 1504 1505 1505 1506 1506 1507 1507 1508
1483 1482 1493 1481 1471 1471 1475 1477 1478 1479 1481 1482 1483 1485 1486 1487 1489 1490 1491 1491 1491 1492 1492 1492 1493 1493 1494 1494 1495 1496 1496 1497 1498 1498 1499 1500 1501 1501 1502 1503 1503 1504 1504 1504
1485 1487 1482 1478 1474 1474 1477 1480 1478 1480 1481 1482 1483 1484 1486 1487 1488 1489 1490 1490 1490 1490 1490 1490 1490 1491 1492 1492 1492 1493 1493 1494 1494 1495 1495 1496 1497 1498 1499 1499 1500 1500 1500 1501
1483 1489 1490 1483 1475 1474 1477 1484 1480 1480 1481 1482 1483 1487 1488 1487 1488 1488 1488 1488 1488 1488 1488 1488 1488 1489 1489 1489 1489 1490 1490 1491 1491 1491 1492 1492 1493 1494 1495 1496 1496 1496 1497 1497
1484 1485 1482 1480 1477 1476 1487 1488 1482 1481 1482 1483 1485 1487 1488 1487 1487 1487 1487 1486 1487 1486 1486 1486 1486 1486 1486 1487 1487 1487 1488 1488 1488 1488 1488 1489 1489 1490 1491 1492 1492 1493 1493 1493
1483 1488 1490 1481 1479 1482 1485 1483 1483 1483 1484 1485 1486 1486 1486 1486 1486 1485 1485 1485 1485 1485 1485 1485 1484 1484 1484 1484 1485 1485 1485 1485 1485 1485 1485 1486 1486 1486 1487 1488 1488 1489 1489 1489
1480 1485 1482 1481 1482 1483 1483 1484 1484 1485 1485 1486 1486 1486 1486 1486 1486 1485 1484 1484 1484 1484 1483 1483 1483 1483 1482 1482 1482 1482 1482 1482 1482 1482 1482 1482 1482 1482 1483 1484 1484 1484 1485 1484
1478 1480 1481 1482 1483 1483 1484 1484 1485 1486 1486 1486 1486 1486 1486 1485 1485 1484 1483 1483 1483 1482 1482 1482 1482 1481 1481 1480 1480 1479 1479 1479 1479 1479 1478 1478 1478 1478 1479 1479 1480 1480 1480 1480
1478 1479 1481 1483 1484 1484 1484 1485 1485 1486 1486 1486 1486 1485 1485 1484 1483 1483 1483 1482 1482 1481 1481 1480 1480 1479 1478 1477 1477 1476 1476 1476 1476 1475 1475 1475 1475 1475 1475 1475 1476 1476 1476 1476
1481 1480 1481 1483 1484 1484 1484 1485 1485 1485 1485 1485 1485 1484 1483 1483 1482 1482 1481 1481 1480 1480 1479 1478 1477 1476 1475 1474 1474 1473 1473 1472 1472 1472 1472 1472 1471 1471 1471 1472 1472 1472 1472 1472
1479 1480 1481 1482 1483 1484 1484 1485 1485 1485 1484 1484 1483 1483 1482 1481 1481 1480 1480 1479 1479 1478 1477 1476 1475 1473 1472 1472 1471 1470 1469 1469 1469 1468 1468 1468 1468 1467 1467 1467 1468 1468 1467 1467
1479 1480 1481 1482 1482 1483 1483 1484 1484 1484 1483 1483 1482 1481 1481 1480 1479 1479 1478 1478 1477 1476 1474 1473 1472 1471 1470 1469 1468 1467 1466 1466 1465 1465 1464 1464 1464 1464 1464 1464 1463 1463 1463 1463
1478 1479 1480 1481 1481 1482 1482 1482 1482 1482 1482 1481 1481 1480 1479 1478 1477 1477 1476 1476 1474 1473 1472 1471 1469 1468 1467 1466 1465 1464 1463 1462 1462 1462 1461 1461 1461 1461 1461 1460 1460 1459 1459 1459
1477 1477 1478 1479 1480 1480 1480 1481 1481 1480 1480 1479 1479 1478 1478 1477 1476 1475 1474 1473 1472 1470 1469 1468 1467 1466 1464 1463 1462 1461 1460 1460 1459 1459 1458 1458 1458 1457 1457 1457 1456 1456 1455 1455
1475 1475 1476 1477 1477 1478 1478 1478 1479 1478 1478 1477 1477 1476 1475 1474 1473 1472 1471 1470 1469 1468 1467 1466 1465 1463 1462 1461 1460 1459 1458 1457 1457 1456 1455 1455 1454 1454 1454 1453 1453 1452 1452 1452
1472 1473 1474 1475 1475 1475 1476 1476 1476 1476 1476 1475 1474 1474 1473 1471 1470 1469 1469 1468 1467 1466 1465 1463 1462 1461 1459 1458 1457 1456 1455 1454 1454 1453 1452 1452 1451 1451 1451 1450 1450 1449 1448 1448
1470 1471 1472 1473 1473 1473 1474 1474 1474 1473 1473 1472 1472 1471 1470 1469 1468 1467 1466 1465 1463 1462 1461 1460 1459 1458 1456 1455 1455 1454 1453 1452 1451 1450 1450 1449 1449 1448 1447 1447 1446 1445 1445 1444
1468 1469 1470 1470 1471 1471 1471 1471 1471 1471 1470 1470 1469 1468 1467 1466 1465 1464 1463 1462 1461 1459 1458 1457 1456 1455 1453 1452 1452 1451 1450 1449 1448 1447 1446 1446 1445 1444 1444 1443 1442 1441 1441 1440
1467 1468 1468 1468 1468 1468 1468 1468 1468 1467 1467 1467 1466 1465 1464 1463 1462 1461 1459 1458 1457 1456 1455 1453 1452 1451 1450 1449 1448 1447 1446 1446 1445 1444 1443 1442 1441 1440 1440 1439 1438 1437 1436 1435
1465 1466 1466 1466 1466 1466 1466 1465 1465 1465 1464 1463 1463 1462 1461 1460 1459 1458 1457 1456 1454 1453 1451 1450 1449 1448 1447 1446 1444 1443 1442 1442 1441 1440 1439 1438 1437 1436 1435 1435 1434 1433 1432 1431
1463 1463 1464 1464 1464 1463 1463 1463 1462 1462 1461 1460 1459 1458 1457 1456 1455 1454 1453 1452 1450 1449 1448 1447 1445 1444 1443 1442 1440 1439 1438 1438 1437 1436 1436 1434 1433 1432 1431 1430 1429 1429 1428 1427
1461 1461 1461 1461 1461 1461 1460 1460 1459 1459 1458 1457 1456 1455 1454 1453 1452 1451 1450 1448 1447 1446 1444 1443 1442 1441 1439 1438 1437 1435 1435 1434 1433 1432 1431 1430 1429 1428 1427 1426 1425 1424 1423 1422
1458 1458 1458 1458 1458 1457 1457 1457 1456 1455 1455 1454 1453 1452 1451 1450 1448 1447 1446 1444 1443 1442 1441 1440 1438 1437 1436 1435 1434 1432 1431 1430 1430 1429 1428 1426 1425 1424 1423 1422 1420 1419 1419 1418
1455 1455 1455 1454 1454 1454 1454 1453 1452 1452 1451 1450 1449 1448 1447 1446 1444 1443 1442 1441 1440 1439 1438 1437 1435 1434 1433 1432 1431 1430 1428 1427 1426 1425 1424 1422 1421 1420 1419 1417 1416 1415 1414 1413
1451 1451 1451 1451 1450 1450 1450 1449 1449 1448 1447 1447 1445 1444 1443 1442 1440 1439 1439 1438 1437 1436 1435 1434 1433 1432 1431 1429 1428 1426 1425 1424 1423 1421 1420 1419 1417 1416 1415 1414 1413 1411 1410 1409